TimeEST,TemperatureF,Dew PointF,Humidity,Sea Level PressureIn,VisibilityMPH,Wind Direction,Wind SpeedMPH,Gust SpeedMPH,PrecipitationIn,Events,Conditions,WindDirDegrees,DateUTC
12:54 AM,34.0,28.9,82,30.42,-9999.0,NW,3.5,-,N/A,,Partly Cloudy,320,2012-11-15 05:54:00
1:54 AM,35.1,30.0,82,30.40,-9999.0,Calm,Calm,-,N/A,,Mostly Cloudy,0,2012-11-15 06:54:00
2:54 AM,36.0,30.0,79,30.40,-9999.0,Calm,Calm,-,N/A,,Overcast,0,2012-11-15 07:54:00
3:26 AM,37.4,30.2,75,30.38,-9999.0,North,3.5,-,N/A,,Overcast,350,2012-11-15 08:26:00
3:54 AM,37.0,30.0,76,30.37,-9999.0,North,3.5,-,N/A,,Overcast,360,2012-11-15 08:54:00
4:54 AM,37.9,30.9,76,30.36,-9999.0,Variable,3.5,-,N/A,,Overcast,0,2012-11-15 09:54:00
5:54 AM,39.0,32.0,76,30.37,-9999.0,NNW,4.6,-,N/A,,Overcast,340,2012-11-15 10:54:00
6:05 AM,39.2,32.0,75,30.37,-9999.0,Calm,Calm,-,N/A,,Overcast,0,2012-11-15 11:05:00
6:54 AM,39.9,33.1,77,30.38,-9999.0,Variable,3.5,-,N/A,,Overcast,0,2012-11-15 11:54:00
7:54 AM,41.0,34.0,76,30.39,-9999.0,Variable,3.5,-,N/A,,Overcast,0,2012-11-15 12:54:00
8:51 AM,42.8,35.6,76,30.38,-9999.0,Variable,3.5,-,N/A,,Overcast,0,2012-11-15 13:51:00
8:54 AM,42.1,35.1,76,30.38,-9999.0,North,3.5,-,N/A,,Overcast,10,2012-11-15 13:54:00
9:54 AM,43.0,36.0,76,30.39,-9999.0,Variable,4.6,-,N/A,,Overcast,0,2012-11-15 14:54:00
10:54 AM,45.0,36.0,71,30.39,-9999.0,NNE,5.8,-,N/A,,Overcast,20,2012-11-15 15:54:00
11:54 AM,46.0,37.0,71,30.36,-9999.0,Variable,3.5,-,N/A,,Overcast,0,2012-11-15 16:54:00
12:54 PM,46.9,37.9,71,30.33,-9999.0,North,6.9,-,N/A,,Overcast,10,2012-11-15 17:54:00
1:54 PM,48.0,37.9,68,30.32,-9999.0,Variable,3.5,-,N/A,,Overcast,0,2012-11-15 18:54:00
2:54 PM,48.0,37.9,68,30.31,-9999.0,Calm,Calm,-,N/A,,Overcast,0,2012-11-15 19:54:00
3:54 PM,48.9,39.0,69,30.32,-9999.0,Variable,3.5,-,N/A,,Overcast,0,2012-11-15 20:54:00
4:54 PM,48.0,39.0,71,30.32,-9999.0,Calm,Calm,-,N/A,,Overcast,0,2012-11-15 21:54:00
5:54 PM,46.0,39.9,79,30.32,-9999.0,Calm,Calm,-,N/A,,Overcast,0,2012-11-15 22:54:00
6:54 PM,45.0,39.0,80,30.31,-9999.0,North,3.5,-,N/A,,Partly Cloudy,360,2012-11-15 23:54:00
7:54 PM,46.0,37.9,73,30.30,-9999.0,Calm,Calm,-,N/A,,Partly Cloudy,0,2012-11-16 00:54:00
8:54 PM,44.1,39.9,85,30.33,-9999.0,Calm,Calm,-,N/A,,Mostly Cloudy,0,2012-11-16 01:54:00
9:54 PM,45.0,37.9,76,30.32,-9999.0,Calm,Calm,-,N/A,,Overcast,0,2012-11-16 02:54:00
10:54 PM,43.0,39.0,86,30.32,-9999.0,Calm,Calm,-,N/A,,Overcast,0,2012-11-16 03:54:00
11:54 PM,43.0,39.0,86,30.32,-9999.0,Calm,Calm,-,N/A,,Overcast,0,2012-11-16 04:54:00